Wetterdaten: Montag, 06.07.2020
Datum Zeit Temp. I. Temp. A. Boden 5 cm Feuchte A. Sonne Luftdruck Regen Wind Zeit Regen
06.07.2020 00:17 22,4 C 19,5 C 19,4 C 74 % 74 % 1016 hPa 0,0 l/m 0,0 km/h (0 Bft) 0 min
06.07.2020 00:20 22,4 C 19,4 C 19,6 C 75 % 74 % 1016 hPa 0,0 l/m 0,0 km/h (0 Bft) 0 min
06.07.2020 00:23 22,4 C 19,3 C 19,6 C 75 % 74 % 1016 hPa 0,0 l/m 0,0 km/h (0 Bft) 0 min
06.07.2020 00:26 22,4 C 19,4 C 19,5 C 75 % 74 % 1015 hPa 0,0 l/m 0,0 km/h (0 Bft) 0 min
06.07.2020 00:29 22,4 C 19,4 C 19,6 C 74 % 74 % 1015 hPa 0,0 l/m 0,0 km/h (0 Bft) 0 min
06.07.2020 00:32 22,4 C 19,3 C 19,6 C 74 % 74 % 1015 hPa 0,0 l/m 0,0 km/h (0 Bft) 0 min
06.07.2020 00:35 22,4 C 19,3 C 19,6 C 74 % 74 % 1015 hPa 0,0 l/m 0,0 km/h (0 Bft) 0 min
06.07.2020 00:38 22,4 C 19,2 C 19,4 C 74 % 74 % 1015 hPa 0,0 l/m 0,0 km/h (0 Bft) 0 min
06.07.2020 00:41 22,4 C 19,2 C 19,5 C 74 % 74 % 1015 hPa 0,0 l/m 0,0 km/h (0 Bft) 0 min
06.07.2020 00:44 22,3 C 19,2 C 19,5 C 74 % 74 % 1015 hPa 0,0 l/m 0,0 km/h (0 Bft) 0 min
06.07.2020 00:47 22,3 C 19,1 C 19,3 C 74 % 74 % 1015 hPa 0,0 l/m 0,0 km/h (0 Bft) 0 min
06.07.2020 00:50 22,1 C 19,0 C 19,5 C 75 % 74 % 1015 hPa 0,0 l/m 0,0 km/h (0 Bft) 0 min
06.07.2020 00:53 22,0 C 19,0 C 19,3 C 75 % 74 % 1015 hPa 0,0 l/m 0,0 km/h (0 Bft) 0 min
06.07.2020 00:56 22,0 C 19,0 C 19,5 C 75 % 74 % 1016 hPa 0,0 l/m 0,0 km/h (0 Bft) 0 min
06.07.2020 00:59 22,0 C 19,0 C 19,4 C 74 % 74 % 1016 hPa 0,0 l/m 0,0 km/h (0 Bft) 0 min
06.07.2020 01:02 21,9 C 19,0 C 19,4 C 74 % 74 % 1016 hPa 0,0 l/m 0,0 km/h (0 Bft) 0 min
06.07.2020 01:05 21,9 C 18,9 C 19,1 C 74 % 74 % 1016 hPa 0,0 l/m 0,0 km/h (0 Bft) 0 min
06.07.2020 01:08 21,8 C 18,8 C 19,3 C 74 % 74 % 1016 hPa 0,0 l/m 0,0 km/h (0 Bft) 0 min
06.07.2020 01:11 21,8 C 18,8 C 19,2 C 74 % 74 % 1016 hPa 0,0 l/m 0,0 km/h (0 Bft) 0 min
06.07.2020 01:14 21,8 C 18,8 C 19,2 C 74 % 74 % 1016 hPa 0,0 l/m 0,1 km/h (0 Bft) 0 min
06.07.2020 01:17 21,8 C 18,8 C 19,1 C 74 % 74 % 1016 hPa 0,0 l/m 0,1 km/h (0 Bft) 0 min
06.07.2020 01:20 21,8 C 18,7 C 19,1 C 74 % 74 % 1016 hPa 0,0 l/m 0,0 km/h (0 Bft) 0 min
06.07.2020 01:23 21,7 C 18,6 C 19,0 C 74 % 74 % 1016 hPa 0,0 l/m 0,0 km/h (0 Bft) 0 min
06.07.2020 01:26 21,7 C 18,5 C 19,0 C 74 % 74 % 1016 hPa 0,0 l/m 0,0 km/h (0 Bft) 0 min
06.07.2020 01:29 21,6 C 18,5 C 18,8 C 75 % 74 % 1016 hPa 0,0 l/m 0,0 km/h (0 Bft) 0 min
06.07.2020 01:32 21,6 C 18,4 C 18,9 C 75 % 74 % 1016 hPa 0,0 l/m 0,0 km/h (0 Bft) 0 min
06.07.2020 01:35 21,6 C 18,4 C 18,8 C 75 % 74 % 1016 hPa 0,0 l/m 0,0 km/h (0 Bft) 0 min
06.07.2020 01:38 21,6 C 18,4 C 18,9 C 75 % 74 % 1016 hPa 0,0 l/m 0,0 km/h (0 Bft) 0 min
06.07.2020 01:41 21,6 C 18,4 C 18,9 C 75 % 74 % 1016 hPa 0,0 l/m 0,0 km/h (0 Bft) 0 min
06.07.2020 01:44 21,5 C 18,3 C 18,9 C 75 % 74 % 1016 hPa 0,0 l/m 0,0 km/h (0 Bft) 0 min
06.07.2020 01:47 21,5 C 18,3 C 19,0 C 75 % 74 % 1016 hPa 0,0 l/m 0,0 km/h (0 Bft) 0 min
06.07.2020 01:50 21,5 C 18,2 C 18,9 C 75 % 74 % 1016 hPa 0,0 l/m 0,0 km/h (0 Bft) 0 min
06.07.2020 01:53 21,5 C 18,2 C 18,8 C 75 % 74 % 1016 hPa 0,0 l/m 0,0 km/h (0 Bft) 0 min
06.07.2020 01:56 21,5 C 18,2 C 18,9 C 75 % 74 % 1016 hPa 0,0 l/m 0,0 km/h (0 Bft) 0 min
06.07.2020 01:59 21,5 C 18,1 C 18,5 C 75 % 74 % 1016 hPa 0,0 l/m 0,0 km/h (0 Bft) 0 min
06.07.2020 02:02 21,4 C 18,0 C 18,5 C 75 % 74 % 1016 hPa 0,0 l/m 0,0 km/h (0 Bft) 0 min
06.07.2020 02:05 21,4 C 18,0 C 18,5 C 75 % 74 % 1016 hPa 0,0 l/m 0,0 km/h (0 Bft) 0 min
06.07.2020 02:08 21,4 C 18,0 C 18,8 C 74 % 74 % 1015 hPa 0,0 l/m 0,0 km/h (0 Bft) 0 min
06.07.2020 02:11 21,4 C 18,0 C 18,7 C 74 % 74 % 1015 hPa 0,0 l/m 0,0 km/h (0 Bft) 0 min
06.07.2020 02:14 21,4 C 18,0 C 18,7 C 74 % 74 % 1015 hPa 0,0 l/m 0,0 km/h (0 Bft) 0 min
06.07.2020 02:17 21,4 C 18,0 C 18,7 C 74 % 74 % 1015 hPa 0,0 l/m 0,0 km/h (0 Bft) 0 min
06.07.2020 02:20 21,4 C 18,0 C 18,6 C 74 % 74 % 1015 hPa 0,0 l/m 0,0 km/h (0 Bft) 0 min
06.07.2020 02:23 21,3 C 18,0 C 18,6 C 74 % 74 % 1015 hPa 0,0 l/m 0,0 km/h (0 Bft) 0 min
06.07.2020 02:26 21,3 C 18,0 C 18,5 C 74 % 74 % 1016 hPa 0,0 l/m 0,0 km/h (0 Bft) 0 min
06.07.2020 02:29 21,3 C 18,0 C 18,3 C 74 % 74 % 1015 hPa 0,0 l/m 0,0 km/h (0 Bft) 0 min
06.07.2020 02:32 21,3 C 17,8 C 18,5 C 74 % 74 % 1015 hPa 0,0 l/m 0,0 km/h (0 Bft) 0 min
06.07.2020 02:35 21,3 C 17,7 C 18,2 C 74 % 74 % 1015 hPa 0,0 l/m 0,0 km/h (0 Bft) 0 min
06.07.2020 02:38 21,3 C 17,7 C 18,6 C 74 % 74 % 1015 hPa 0,0 l/m 0,0 km/h (0 Bft) 0 min
06.07.2020 02:41 21,3 C 17,8 C 18,4 C 74 % 74 % 1015 hPa 0,0 l/m 0,0 km/h (0 Bft) 0 min
06.07.2020 02:44 21,2 C 17,8 C 18,5 C 74 % 74 % 1015 hPa 0,0 l/m 0,0 km/h (0 Bft) 0 min
06.07.2020 02:47 21,2 C 17,8 C 18,5 C 74 % 74 % 1015 hPa 0,0 l/m 0,0 km/h (0 Bft) 0 min
06.07.2020 02:50 21,2 C 17,8 C 18,3 C 74 % 74 % 1015 hPa 0,0 l/m 0,0 km/h (0 Bft) 0 min
06.07.2020 02:53 21,2 C 17,7 C 18,3 C 74 % 74 % 1015 hPa 0,0 l/m 0,0 km/h (0 Bft) 0 min
06.07.2020 02:56 21,2 C 17,7 C 18,1 C 74 % 74 % 1015 hPa 0,0 l/m 0,0 km/h (0 Bft) 0 min
06.07.2020 02:59 21,2 C 17,5 C 18,2 C 74 % 74 % 1015 hPa 0,0 l/m 0,0 km/h (0 Bft) 0 min
06.07.2020 03:02 21,2 C 17,5 C 18,4 C 74 % 74 % 1015 hPa 0,0 l/m 0,0 km/h (0 Bft) 0 min
06.07.2020 03:05 21,2 C 17,6 C 18,4 C 74 % 74 % 1015 hPa 0,0 l/m 0,0 km/h (0 Bft) 0 min
06.07.2020 03:08 21,2 C 17,6 C 18,3 C 74 % 74 % 1015 hPa 0,0 l/m 0,0 km/h (0 Bft) 0 min
06.07.2020 03:11 21,1 C 17,6 C 18,2 C 74 % 74 % 1015 hPa 0,0 l/m 0,0 km/h (0 Bft) 0 min
06.07.2020 03:14 21,0 C 17,3 C 18,0 C 74 % 74 % 1015 hPa 0,0 l/m 0,0 km/h (0 Bft) 0 min
06.07.2020 03:17 21,0 C 17,3 C 18,0 C 74 % 74 % 1015 hPa 0,0 l/m 0,0 km/h (0 Bft) 0 min
06.07.2020 03:20 21,0 C 17,2 C 18,0 C 74 % 74 % 1015 hPa 0,0 l/m 0,0 km/h (0 Bft) 0 min
06.07.2020 03:23 20,9 C 17,2 C 18,0 C 74 % 74 % 1015 hPa 0,0 l/m 0,0 km/h (0 Bft) 0 min
06.07.2020 03:26 20,9 C 17,2 C 18,2 C 74 % 74 % 1015 hPa 0,0 l/m 0,0 km/h (0 Bft) 0 min
06.07.2020 03:29 20,9 C 17,2 C 18,1 C 74 % 74 % 1015 hPa 0,0 l/m 0,0 km/h (0 Bft) 0 min
06.07.2020 03:32 20,9 C 17,2 C 18,0 C 74 % 74 % 1015 hPa 0,0 l/m 0,0 km/h (0 Bft) 0 min
06.07.2020 03:35 20,8 C 17,2 C 18,0 C 74 % 74 % 1015 hPa 0,0 l/m 0,0 km/h (0 Bft) 0 min
06.07.2020 03:38 20,8 C 17,2 C 17,9 C 74 % 74 % 1015 hPa 0,0 l/m 0,0 km/h (0 Bft) 0 min
06.07.2020 03:41 20,8 C 17,1 C 18,0 C 74 % 74 % 1015 hPa 0,0 l/m 0,0 km/h (0 Bft) 0 min
06.07.2020 03:44 20,8 C 17,1 C 17,9 C 74 % 74 % 1015 hPa 0,0 l/m 0,0 km/h (0 Bft) 0 min
06.07.2020 03:47 20,8 C 17,1 C 18,0 C 74 % 74 % 1015 hPa 0,0 l/m 0,0 km/h (0 Bft) 0 min
06.07.2020 03:50 20,8 C 17,1 C 18,0 C 74 % 74 % 1015 hPa 0,0 l/m 0,0 km/h (0 Bft) 0 min
06.07.2020 03:53 20,8 C 17,1 C 18,0 C 74 % 74 % 1015 hPa 0,0 l/m 0,0 km/h (0 Bft) 0 min
06.07.2020 03:56 20,8 C 17,1 C 18,0 C 74 % 74 % 1015 hPa 0,0 l/m 0,0 km/h (0 Bft) 0 min
06.07.2020 03:59 20,8 C 17,0 C 17,9 C 74 % 74 % 1015 hPa 0,0 l/m 0,0 km/h (0 Bft) 0 min
06.07.2020 04:02 20,8 C 17,0 C 17,9 C 74 % 74 % 1015 hPa 0,0 l/m 0,0 km/h (0 Bft) 0 min
06.07.2020 04:05 20,7 C 16,9 C 17,8 C 75 % 74 % 1015 hPa 0,0 l/m 0,0 km/h (0 Bft) 0 min
06.07.2020 04:08 20,7 C 16,8 C 17,8 C 75 % 74 % 1015 hPa 0,0 l/m 0,0 km/h (0 Bft) 0 min
06.07.2020 04:11 20,7 C 16,8 C 17,9 C 75 % 74 % 1015 hPa 0,0 l/m 0,0 km/h (0 Bft) 0 min
06.07.2020 04:14 20,7 C 16,9 C 17,8 C 75 % 74 % 1015 hPa 0,0 l/m 0,0 km/h (0 Bft) 0 min
06.07.2020 04:17 20,7 C 16,8 C 17,7 C 74 % 74 % 1015 hPa 0,0 l/m 0,0 km/h (0 Bft) 0 min
06.07.2020 04:20 20,6 C 16,8 C 17,7 C 75 % 74 % 1015 hPa 0,0 l/m 0,0 km/h (0 Bft) 0 min
06.07.2020 04:23 20,6 C 16,8 C 17,7 C 75 % 74 % 1015 hPa 0,0 l/m 0,0 km/h (0 Bft) 0 min
06.07.2020 04:26 20,6 C 16,7 C 17,6 C 75 % 74 % 1015 hPa 0,0 l/m 0,0 km/h (0 Bft) 0 min
06.07.2020 04:29 20,6 C 16,7 C 17,6 C 75 % 74 % 1015 hPa 0,0 l/m 0,0 km/h (0 Bft) 0 min
06.07.2020 04:32 20,6 C 16,6 C 17,6 C 75 % 74 % 1015 hPa 0,0 l/m 0,0 km/h (0 Bft) 0 min
06.07.2020 04:35 20,6 C 16,6 C 17,6 C 75 % 74 % 1015 hPa 0,0 l/m 0,0 km/h (0 Bft) 0 min
06.07.2020 04:38 20,6 C 16,6 C 17,6 C 75 % 74 % 1015 hPa 0,0 l/m 0,0 km/h (0 Bft) 0 min
06.07.2020 04:41 20,6 C 16,6 C 17,5 C 75 % 74 % 1015 hPa 0,0 l/m 0,0 km/h (0 Bft) 0 min
06.07.2020 04:44 20,6 C 16,5 C 17,4 C 75 % 74 % 1015 hPa 0,0 l/m 0,0 km/h (0 Bft) 0 min
06.07.2020 04:47 20,6 C 16,4 C 17,4 C 75 % 74 % 1015 hPa 0,0 l/m 0,0 km/h (0 Bft) 0 min
06.07.2020 04:50 20,5 C 16,4 C 17,6 C 75 % 74 % 1015 hPa 0,0 l/m 0,0 km/h (0 Bft) 0 min
06.07.2020 04:53 20,5 C 16,4 C 17,3 C 75 % 74 % 1015 hPa 0,0 l/m 0,0 km/h (0 Bft) 0 min
06.07.2020 04:56 20,5 C 16,4 C 17,5 C 75 % 74 % 1015 hPa 0,0 l/m 0,0 km/h (0 Bft) 0 min
06.07.2020 04:59 20,5 C 16,3 C 17,2 C 75 % 74 % 1015 hPa 0,0 l/m 0,0 km/h (0 Bft) 0 min
06.07.2020 05:02 20,5 C 16,2 C 17,3 C 75 % 74 % 1015 hPa 0,0 l/m 0,0 km/h (0 Bft) 0 min
06.07.2020 05:05 20,5 C 16,2 C 17,4 C 75 % 74 % 1015 hPa 0,0 l/m 0,0 km/h (0 Bft) 0 min
06.07.2020 05:08 20,4 C 16,3 C 17,5 C 75 % 74 % 1015 hPa 0,0 l/m 0,0 km/h (0 Bft) 0 min
06.07.2020 05:11 20,4 C 16,4 C 17,5 C 75 % 74 % 1015 hPa 0,0 l/m 0,0 km/h (0 Bft) 0 min
06.07.2020 05:14 20,4 C 16,4 C 17,4 C 75 % 74 % 1015 hPa 0,0 l/m 0,0 km/h (0 Bft) 0 min
06.07.2020 05:17 20,4 C 16,3 C 17,4 C 75 % 74 % 1015 hPa 0,0 l/m 0,0 km/h (0 Bft) 0 min
06.07.2020 05:20 20,4 C 16,3 C 17,4 C 75 % 74 % 1015 hPa 0,0 l/m 0,0 km/h (0 Bft) 0 min
06.07.2020 05:23 20,4 C 16,3 C 17,3 C 75 % 74 % 1015 hPa 0,0 l/m 0,0 km/h (0 Bft) 0 min
06.07.2020 05:26 20,4 C 16,2 C 17,2 C 75 % 74 % 1015 hPa 0,0 l/m 0,0 km/h (0 Bft) 0 min
06.07.2020 05:29 20,4 C 16,2 C 17,3 C 75 % 74 % 1015 hPa 0,0 l/m 0,0 km/h (0 Bft) 0 min
06.07.2020 05:32 20,4 C 16,2 C 17,4 C 75 % 74 % 1015 hPa 0,0 l/m 0,0 km/h (0 Bft) 0 min
06.07.2020 05:35 20,3 C 16,2 C 17,4 C 75 % 74 % 1015 hPa 0,0 l/m 0,0 km/h (0 Bft) 0 min
06.07.2020 05:38 20,3 C 16,2 C 17,4 C 75 % 74 % 1015 hPa 0,0 l/m 0,0 km/h (0 Bft) 0 min
06.07.2020 05:41 20,3 C 16,3 C 17,5 C 75 % 74 % 1015 hPa 0,0 l/m 0,0 km/h (0 Bft) 0 min
06.07.2020 05:44 20,3 C 16,3 C 17,3 C 75 % 74 % 1015 hPa 0,0 l/m 0,0 km/h (0 Bft) 0 min
06.07.2020 05:47 20,3 C 16,3 C 17,3 C 75 % 74 % 1015 hPa 0,0 l/m 0,0 km/h (0 Bft) 0 min
06.07.2020 05:50 20,3 C 16,3 C 17,2 C 75 % 74 % 1015 hPa 0,0 l/m 0,0 km/h (0 Bft) 0 min
06.07.2020 05:53 20,3 C 16,3 C 17,3 C 75 % 74 % 1015 hPa 0,0 l/m 0,0 km/h (0 Bft) 0 min
06.07.2020 05:56 20,3 C 16,3 C 17,3 C 75 % 74 % 1015 hPa 0,0 l/m 0,0 km/h (0 Bft) 0 min
06.07.2020 05:59 20,3 C 16,4 C 17,3 C 75 % 74 % 1015 hPa 0,0 l/m 0,0 km/h (0 Bft) 0 min
06.07.2020 06:02 20,3 C 16,4 C 17,3 C 75 % 74 % 1015 hPa 0,0 l/m 0,0 km/h (0 Bft) 0 min
06.07.2020 06:05 20,4 C 16,3 C 17,4 C 74 % 74 % 1015 hPa 0,0 l/m 0,0 km/h (0 Bft) 0 min
06.07.2020 06:08 20,4 C 16,3 C 17,4 C 74 % 74 % 1015 hPa 0,0 l/m 0,0 km/h (0 Bft) 0 min
06.07.2020 06:11 20,4 C 16,4 C 17,4 C 74 % 74 % 1015 hPa 0,0 l/m 0,1 km/h (0 Bft) 0 min
06.07.2020 06:14 20,4 C 16,4 C 17,6 C 74 % 74 % 1015 hPa 0,0 l/m 0,1 km/h (0 Bft) 0 min
06.07.2020 06:17 20,4 C 16,6 C 17,6 C 74 % 74 % 1015 hPa 0,0 l/m 0,1 km/h (0 Bft) 0 min
06.07.2020 06:20 20,4 C 16,7 C 17,6 C 74 % 74 % 1015 hPa 0,0 l/m 0,0 km/h (0 Bft) 0 min
06.07.2020 06:23 20,5 C 16,8 C 17,6 C 74 % 74 % 1015 hPa 0,0 l/m 0,0 km/h (0 Bft) 0 min
06.07.2020 06:26 20,6 C 16,8 C 17,6 C 74 % 74 % 1015 hPa 0,0 l/m 0,0 km/h (0 Bft) 0 min
06.07.2020 06:29 20,8 C 16,8 C 17,8 C 74 % 74 % 1015 hPa 0,0 l/m 0,0 km/h (0 Bft) 0 min
06.07.2020 06:32 20,8 C 17,1 C 17,7 C 74 % 74 % 1015 hPa 0,0 l/m 0,0 km/h (0 Bft) 0 min
06.07.2020 06:35 20,8 C 17,1 C 17,7 C 74 % 74 % 1015 hPa 0,0 l/m 0,0 km/h (0 Bft) 0 min
06.07.2020 06:38 21,0 C 17,3 C 18,0 C 74 % 74 % 1015 hPa 0,0 l/m 0,0 km/h (0 Bft) 0 min
06.07.2020 06:41 21,0 C 17,4 C 18,0 C 74 % 74 % 1015 hPa 0,0 l/m 0,0 km/h (0 Bft) 0 min
06.07.2020 06:44 21,0 C 17,4 C 18,1 C 74 % 74 % 1015 hPa 0,0 l/m 0,0 km/h (0 Bft) 0 min
06.07.2020 06:47 21,0 C 17,4 C 18,2 C 74 % 74 % 1015 hPa 0,0 l/m 0,0 km/h (0 Bft) 0 min
06.07.2020 06:50 21,1 C 17,7 C 18,2 C 74 % 74 % 1015 hPa 0,0 l/m 0,0 km/h (0 Bft) 0 min
06.07.2020 06:53 21,2 C 17,7 C 18,3 C 74 % 74 % 1015 hPa 0,0 l/m 0,0 km/h (0 Bft) 0 min
06.07.2020 06:56 21,2 C 18,0 C 18,3 C 74 % 74 % 1015 hPa 0,0 l/m 0,0 km/h (0 Bft) 0 min
06.07.2020 06:59 21,2 C 18,1 C 18,4 C 74 % 74 % 1015 hPa 0,0 l/m 0,0 km/h (0 Bft) 0 min
06.07.2020 07:02 21,2 C 18,1 C 18,8 C 74 % 74 % 1015 hPa 0,0 l/m 0,0 km/h (0 Bft) 0 min
06.07.2020 07:05 21,2 C 18,2 C 18,8 C 73 % 74 % 1015 hPa 0,0 l/m 0,0 km/h (0 Bft) 0 min
06.07.2020 07:08 21,2 C 18,3 C 18,7 C 73 % 74 % 1015 hPa 0,0 l/m 0,0 km/h (0 Bft) 0 min
06.07.2020 07:11 21,2 C 18,4 C 18,6 C 73 % 74 % 1015 hPa 0,0 l/m 0,0 km/h (0 Bft) 0 min
06.07.2020 07:14 21,2 C 18,4 C 18,7 C 73 % 74 % 1015 hPa 0,0 l/m 0,0 km/h (0 Bft) 0 min
06.07.2020 07:17 21,3 C 18,5 C 18,7 C 73 % 74 % 1015 hPa 0,0 l/m 0,0 km/h (0 Bft) 0 min
06.07.2020 07:20 21,3 C 18,6 C 19,1 C 73 % 74 % 1015 hPa 0,0 l/m 0,0 km/h (0 Bft) 0 min
06.07.2020 07:23 21,3 C 18,8 C 19,3 C 73 % 74 % 1015 hPa 0,0 l/m 0,0 km/h (0 Bft) 0 min
06.07.2020 07:26 21,3 C 18,9 C 19,2 C 73 % 74 % 1015 hPa 0,0 l/m 0,0 km/h (0 Bft) 0 min
06.07.2020 07:29 21,3 C 19,0 C 19,2 C 73 % 74 % 1015 hPa 0,0 l/m 0,0 km/h (0 Bft) 0 min
06.07.2020 07:32 21,3 C 19,0 C 18,6 C 73 % 74 % 1015 hPa 0,0 l/m 0,0 km/h (0 Bft) 0 min
06.07.2020 07:35 21,4 C 19,1 C 18,6 C 73 % 74 % 1014 hPa 0,0 l/m 0,0 km/h (0 Bft) 0 min
06.07.2020 07:38 21,4 C 19,2 C 18,6 C 73 % 74 % 1014 hPa 0,0 l/m 0,0 km/h (0 Bft) 0 min
06.07.2020 07:41 21,4 C 19,4 C 18,7 C 73 % 74 % 1014 hPa 0,0 l/m 0,0 km/h (0 Bft) 0 min
06.07.2020 07:44 21,4 C 19,6 C 19,3 C 73 % 74 % 1014 hPa 0,0 l/m 3,7 km/h (1 Bft) 0 min
06.07.2020 07:47 21,4 C 19,8 C 19,5 C 73 % 74 % 1014 hPa 0,0 l/m 3,7 km/h (1 Bft) 0 min
06.07.2020 07:50 21,4 C 20,0 C 19,9 C 73 % 74 % 1014 hPa 0,0 l/m 3,7 km/h (1 Bft) 0 min
06.07.2020 07:53 21,4 C 20,2 C 19,9 C 73 % 74 % 1014 hPa 0,0 l/m 3,7 km/h (1 Bft) 0 min
06.07.2020 07:56 21,4 C 20,3 C 19,9 C 73 % 74 % 1014 hPa 0,0 l/m 3,7 km/h (1 Bft) 0 min
06.07.2020 07:59 21,4 C 20,5 C 19,6 C 73 % 74 % 1014 hPa 0,0 l/m 3,7 km/h (1 Bft) 0 min
06.07.2020 08:02 21,4 C 20,5 C 19,8 C 73 % 74 % 1014 hPa 0,0 l/m 3,7 km/h (1 Bft) 0 min
06.07.2020 08:05 21,4 C 20,5 C 19,6 C 73 % 74 % 1014 hPa 0,0 l/m 3,7 km/h (1 Bft) 0 min
06.07.2020 08:08 21,5 C 20,8 C 19,5 C 72 % 74 % 1014 hPa 0,0 l/m 3,7 km/h (1 Bft) 0 min
06.07.2020 08:11 21,5 C 20,9 C 19,5 C 73 % 74 % 1014 hPa 0,0 l/m 3,7 km/h (1 Bft) 0 min
06.07.2020 08:14 21,5 C 21,0 C 19,5 C 72 % 74 % 1014 hPa 0,0 l/m 3,7 km/h (1 Bft) 0 min
06.07.2020 08:17 21,5 C 21,1 C 19,5 C 72 % 74 % 1014 hPa 0,0 l/m 3,7 km/h (1 Bft) 0 min
06.07.2020 08:20 21,5 C 21,2 C 19,6 C 72 % 74 % 1014 hPa 0,0 l/m 3,7 km/h (1 Bft) 0 min
06.07.2020 08:23 21,5 C 21,3 C 19,7 C 72 % 74 % 1014 hPa 0,0 l/m 3,7 km/h (1 Bft) 0 min
06.07.2020 08:26 21,5 C 21,6 C 20,1 C 72 % 74 % 1014 hPa 0,0 l/m 3,7 km/h (1 Bft) 0 min
06.07.2020 08:29 21,5 C 21,8 C 20,2 C 70 % 74 % 1014 hPa 0,0 l/m 3,7 km/h (1 Bft) 0 min
06.07.2020 08:32 21,5 C 21,9 C 20,2 C 69 % 74 % 1014 hPa 0,0 l/m 3,7 km/h (1 Bft) 0 min
06.07.2020 08:35 21,6 C 22,0 C 20,4 C 69 % 74 % 1014 hPa 0,0 l/m 3,7 km/h (1 Bft) 0 min
06.07.2020 08:38 21,6 C 22,2 C 20,6 C 69 % 74 % 1014 hPa 0,0 l/m 3,7 km/h (1 Bft) 0 min
06.07.2020 08:41 21,6 C 22,3 C 20,6 C 68 % 74 % 1014 hPa 0,0 l/m 3,7 km/h (1 Bft) 0 min
06.07.2020 08:44 21,6 C 22,4 C 20,6 C 67 % 74 % 1014 hPa 0,0 l/m 3,7 km/h (1 Bft) 0 min
06.07.2020 08:47 21,6 C 22,4 C 20,7 C 67 % 74 % 1014 hPa 0,0 l/m 3,7 km/h (1 Bft) 0 min
06.07.2020 08:50 21,6 C 22,5 C 21,0 C 66 % 74 % 1014 hPa 0,0 l/m 3,7 km/h (1 Bft) 0 min
06.07.2020 08:53 21,6 C 22,6 C 21,0 C 66 % 74 % 1014 hPa 0,0 l/m 3,7 km/h (1 Bft) 0 min
06.07.2020 08:56 21,6 C 22,8 C 21,2 C 67 % 74 % 1014 hPa 0,0 l/m 10,1 km/h (2 Bft) 0 min
06.07.2020 08:59 21,6 C 22,9 C 21,0 C 66 % 74 % 1014 hPa 0,0 l/m 11,4 km/h (2 Bft) 0 min
06.07.2020 09:02 21,6 C 22,9 C 21,1 C 65 % 74 % 1014 hPa 0,0 l/m 11,4 km/h (2 Bft) 0 min
06.07.2020 09:05 21,6 C 23,0 C 21,0 C 66 % 74 % 1014 hPa 0,0 l/m 11,4 km/h (2 Bft) 0 min
06.07.2020 09:08 21,6 C 23,0 C 20,9 C 65 % 74 % 1014 hPa 0,0 l/m 10,7 km/h (2 Bft) 0 min
06.07.2020 09:11 21,7 C 23,1 C 21,0 C 65 % 74 % 1014 hPa 0,0 l/m 10,7 km/h (2 Bft) 0 min
06.07.2020 09:14 21,7 C 23,1 C 21,2 C 64 % 74 % 1014 hPa 0,0 l/m 10,7 km/h (2 Bft) 0 min
06.07.2020 09:17 21,7 C 23,2 C 21,2 C 64 % 74 % 1014 hPa 0,0 l/m 10,7 km/h (2 Bft) 0 min
06.07.2020 09:20 21,7 C 23,3 C 21,2 C 64 % 74 % 1014 hPa 0,0 l/m 10,7 km/h (2 Bft) 0 min
06.07.2020 09:23 21,7 C 23,4 C 21,2 C 64 % 74 % 1014 hPa 0,0 l/m 10,7 km/h (2 Bft) 0 min
06.07.2020 09:26 21,7 C 23,5 C 21,4 C 64 % 74 % 1014 hPa 0,0 l/m 10,7 km/h (2 Bft) 0 min
06.07.2020 09:29 21,6 C 23,6 C 21,5 C 63 % 74 % 1014 hPa 0,0 l/m 10,7 km/h (2 Bft) 0 min
06.07.2020 09:32 21,7 C 23,7 C 21,7 C 62 % 74 % 1014 hPa 0,0 l/m 10,7 km/h (2 Bft) 0 min
06.07.2020 09:35 21,7 C 23,8 C 21,4 C 61 % 74 % 1014 hPa 0,0 l/m 10,7 km/h (2 Bft) 0 min
06.07.2020 09:38 21,7 C 23,8 C 21,5 C 61 % 74 % 1014 hPa 0,0 l/m 10,7 km/h (2 Bft) 0 min
06.07.2020 09:41 21,7 C 23,9 C 21,7 C 62 % 74 % 1014 hPa 0,0 l/m 10,7 km/h (2 Bft) 0 min
06.07.2020 09:44 21,7 C 23,9 C 21,7 C 62 % 74 % 1014 hPa 0,0 l/m 10,7 km/h (2 Bft) 0 min
06.07.2020 09:47 21,7 C 23,8 C 21,7 C 62 % 74 % 1014 hPa 0,0 l/m 10,7 km/h (2 Bft) 0 min
06.07.2020 09:50 21,7 C 23,8 C 21,6 C 62 % 74 % 1014 hPa 0,0 l/m 10,7 km/h (2 Bft) 0 min
06.07.2020 09:53 21,7 C 23,9 C 21,6 C 64 % 74 % 1014 hPa 0,0 l/m 10,7 km/h (2 Bft) 0 min
06.07.2020 09:56 21,7 C 24,0 C 21,7 C 62 % 74 % 1014 hPa 0,0 l/m 10,7 km/h (2 Bft) 0 min
06.07.2020 09:59 21,8 C 24,0 C 21,7 C 62 % 74 % 1014 hPa 0,0 l/m 10,7 km/h (2 Bft) 0 min
06.07.2020 10:02 21,8 C 24,1 C 21,9 C 62 % 74 % 1014 hPa 0,0 l/m 10,7 km/h (2 Bft) 0 min
06.07.2020 10:05 21,8 C 24,2 C 21,9 C 62 % 74 % 1014 hPa 0,0 l/m 10,7 km/h (2 Bft) 0 min
06.07.2020 10:08 21,8 C 24,2 C 22,0 C 62 % 74 % 1014 hPa 0,0 l/m 10,7 km/h (2 Bft) 0 min
06.07.2020 10:11 21,8 C 24,4 C 22,1 C 62 % 74 % 1014 hPa 0,0 l/m 10,7 km/h (2 Bft) 0 min
06.07.2020 10:14 21,8 C 24,5 C 22,1 C 61 % 74 % 1014 hPa 0,0 l/m 10,7 km/h (2 Bft) 0 min
06.07.2020 10:17 21,8 C 24,6 C 22,3 C 61 % 74 % 1014 hPa 0,0 l/m 10,7 km/h (2 Bft) 0 min
06.07.2020 10:20 21,7 C 24,3 C 22,2 C 60 % 74 % 1014 hPa 0,0 l/m 10,7 km/h (2 Bft) 0 min
06.07.2020 10:23 21,8 C 24,1 C 21,9 C 60 % 74 % 1014 hPa 0,0 l/m 10,7 km/h (2 Bft) 0 min
06.07.2020 10:26 21,8 C 24,1 C 22,1 C 60 % 74 % 1014 hPa 0,0 l/m 10,7 km/h (2 Bft) 0 min
06.07.2020 10:29 21,8 C 23,8 C 21,8 C 61 % 74 % 1014 hPa 0,0 l/m 10,7 km/h (2 Bft) 0 min
06.07.2020 10:32 22,0 C 23,6 C 21,6 C 62 % 74 % 1014 hPa 0,0 l/m 16,0 km/h (3 Bft) 0 min
06.07.2020 10:35 22,0 C 23,8 C 21,7 C 62 % 74 % 1014 hPa 0,0 l/m 16,0 km/h (3 Bft) 0 min
06.07.2020 10:38 22,1 C 24,2 C 22,1 C 62 % 74 % 1014 hPa 0,0 l/m 16,0 km/h (3 Bft) 0 min
06.07.2020 10:41 22,1 C 24,4 C 22,8 C 60 % 74 % 1014 hPa 0,0 l/m 16,0 km/h (3 Bft) 0 min
06.07.2020 10:44 22,1 C 24,6 C 22,3 C 60 % 74 % 1014 hPa 0,0 l/m 16,0 km/h (3 Bft) 0 min
06.07.2020 10:47 22,0 C 24,7 C 22,4 C 60 % 74 % 1014 hPa 0,0 l/m 15,5 km/h (3 Bft) 0 min
06.07.2020 10:50 22,0 C 24,7 C 22,9 C 60 % 74 % 1014 hPa 0,0 l/m 15,5 km/h (3 Bft) 0 min
06.07.2020 10:53 22,0 C 24,6 C 22,5 C 60 % 74 % 1014 hPa 0,0 l/m 15,5 km/h (3 Bft) 0 min
06.07.2020 10:56 22,0 C 24,6 C 22,4 C 60 % 74 % 1014 hPa 0,0 l/m 15,5 km/h (3 Bft) 0 min
06.07.2020 10:59 22,0 C 24,0 C 22,2 C 62 % 74 % 1014 hPa 0,0 l/m 15,5 km/h (3 Bft) 0 min
06.07.2020 11:02 22,0 C 23,7 C 22,2 C 63 % 74 % 1014 hPa 0,0 l/m 15,5 km/h (3 Bft) 0 min
06.07.2020 11:05 22,0 C 23,7 C 22,2 C 63 % 74 % 1014 hPa 0,0 l/m 25,8 km/h (4 Bft) 0 min
06.07.2020 11:08 22,0 C 23,8 C 22,0 C 63 % 74 % 1014 hPa 0,0 l/m 25,8 km/h (4 Bft) 0 min
06.07.2020 11:11 22,0 C 23,5 C 21,9 C 62 % 74 % 1014 hPa 0,0 l/m 25,3 km/h (4 Bft) 0 min
06.07.2020 11:14 22,0 C 23,1 C 21,7 C 62 % 74 % 1014 hPa 0,0 l/m 25,3 km/h (4 Bft) 0 min
06.07.2020 11:17 22,0 C 22,7 C 21,5 C 63 % 74 % 1015 hPa 0,0 l/m 25,3 km/h (4 Bft) 0 min
06.07.2020 11:20 22,0 C 22,2 C 21,3 C 63 % 74 % 1015 hPa 0,0 l/m 25,3 km/h (4 Bft) 0 min
06.07.2020 11:23 22,0 C 21,9 C 21,2 C 64 % 74 % 1015 hPa 0,0 l/m 25,3 km/h (4 Bft) 0 min
06.07.2020 11:26 22,0 C 21,6 C 21,0 C 64 % 74 % 1015 hPa 0,0 l/m 25,3 km/h (4 Bft) 0 min
06.07.2020 11:29 22,0 C 21,3 C 21,0 C 64 % 74 % 1015 hPa 0,0 l/m 25,3 km/h (4 Bft) 0 min
06.07.2020 11:32 22,1 C 21,2 C 20,8 C 65 % 74 % 1015 hPa 0,0 l/m 25,3 km/h (4 Bft) 0 min
06.07.2020 11:35 22,0 C 21,2 C 20,8 C 65 % 74 % 1015 hPa 0,0 l/m 25,3 km/h (4 Bft) 0 min
06.07.2020 11:38 22,1 C 21,1 C 20,9 C 65 % 74 % 1015 hPa 0,0 l/m 19,3 km/h (3 Bft) 0 min
06.07.2020 11:41 22,0 C 21,2 C 20,7 C 65 % 74 % 1015 hPa 0,0 l/m 19,3 km/h (3 Bft) 0 min
06.07.2020 11:44 22,0 C 21,2 C 20,7 C 62 % 74 % 1015 hPa 0,0 l/m 19,3 km/h (3 Bft) 0 min
06.07.2020 11:47 22,1 C 21,1 C 20,4 C 62 % 74 % 1015 hPa 0,0 l/m 19,3 km/h (3 Bft) 0 min
06.07.2020 11:50 22,1 C 21,0 C 20,6 C 62 % 74 % 1015 hPa 0,0 l/m 19,3 km/h (3 Bft) 0 min
06.07.2020 11:53 22,1 C 21,0 C 20,5 C 62 % 74 % 1015 hPa 0,0 l/m 19,3 km/h (3 Bft) 0 min
06.07.2020 11:56 22,1 C 21,0 C 20,5 C 62 % 74 % 1015 hPa 0,0 l/m 19,3 km/h (3 Bft) 0 min
06.07.2020 11:59 22,0 C 20,8 C 20,5 C 62 % 74 % 1015 hPa 0,0 l/m 19,3 km/h (3 Bft) 0 min
06.07.2020 12:02 22,0 C 20,8 C 20,6 C 61 % 74 % 1015 hPa 0,0 l/m 19,3 km/h (3 Bft) 0 min
06.07.2020 12:05 22,0 C 20,8 C 20,4 C 63 % 74 % 1015 hPa 0,0 l/m 19,3 km/h (3 Bft) 0 min
06.07.2020 12:08 22,0 C 20,8 C 20,6 C 62 % 74 % 1015 hPa 0,0 l/m 19,3 km/h (3 Bft) 0 min
06.07.2020 12:11 22,0 C 20,8 C 20,4 C 61 % 74 % 1015 hPa 0,0 l/m 19,3 km/h (3 Bft) 0 min
06.07.2020 12:14 22,1 C 20,8 C 20,5 C 61 % 74 % 1015 hPa 0,0 l/m 19,3 km/h (3 Bft) 0 min
06.07.2020 12:17 22,1 C 20,8 C 20,4 C 61 % 74 % 1015 hPa 0,0 l/m 19,3 km/h (3 Bft) 0 min
06.07.2020 12:20 22,0 C 20,8 C 20,4 C 62 % 74 % 1015 hPa 0,0 l/m 19,3 km/h (3 Bft) 0 min
06.07.2020 12:23 22,0 C 20,8 C 20,4 C 63 % 74 % 1015 hPa 0,0 l/m 19,3 km/h (3 Bft) 0 min
06.07.2020 12:26 22,0 C 21,0 C 20,6 C 61 % 74 % 1015 hPa 0,0 l/m 19,3 km/h (3 Bft) 0 min
06.07.2020 12:29 22,0 C 21,3 C 20,8 C 62 % 74 % 1015 hPa 0,0 l/m 19,3 km/h (3 Bft) 0 min
06.07.2020 12:32 22,1 C 21,5 C 20,7 C 61 % 74 % 1015 hPa 0,0 l/m 19,3 km/h (3 Bft) 0 min
06.07.2020 12:35 22,1 C 21,5 C 20,8 C 61 % 74 % 1015 hPa 0,0 l/m 19,3 km/h (3 Bft) 0 min
06.07.2020 12:38 22,1 C 21,5 C 20,9 C 61 % 74 % 1015 hPa 0,0 l/m 19,3 km/h (3 Bft) 0 min
06.07.2020 12:41 22,1 C 21,5 C 20,9 C 61 % 74 % 1015 hPa 0,0 l/m 19,3 km/h (3 Bft) 0 min
06.07.2020 12:44 22,1 C 21,4 C 20,8 C 61 % 74 % 1015 hPa 0,0 l/m 19,3 km/h (3 Bft) 0 min
06.07.2020 12:47 22,2 C 21,5 C 20,8 C 62 % 74 % 1015 hPa 0,0 l/m 19,3 km/h (3 Bft) 0 min
06.07.2020 12:50 22,2 C 21,6 C 20,9 C 61 % 74 % 1015 hPa 0,0 l/m 19,3 km/h (3 Bft) 0 min
06.07.2020 12:53 22,2 C 21,6 C 21,0 C 61 % 74 % 1015 hPa 0,0 l/m 19,3 km/h (3 Bft) 0 min
06.07.2020 12:56 22,2 C 21,8 C 20,9 C 61 % 74 % 1015 hPa 0,0 l/m 19,3 km/h (3 Bft) 0 min
06.07.2020 12:59 22,2 C 22,0 C 21,2 C 61 % 74 % 1015 hPa 0,0 l/m 19,3 km/h (3 Bft) 0 min
06.07.2020 13:02 22,2 C 22,0 C 21,3 C 61 % 74 % 1015 hPa 0,0 l/m 19,3 km/h (3 Bft) 0 min
06.07.2020 13:05 22,2 C 22,4 C 21,4 C 58 % 74 % 1015 hPa 0,0 l/m 19,3 km/h (3 Bft) 0 min
06.07.2020 13:08 22,2 C 22,2 C 21,3 C 58 % 74 % 1015 hPa 0,0 l/m 19,3 km/h (3 Bft) 0 min
06.07.2020 13:11 22,3 C 22,0 C 21,1 C 59 % 74 % 1015 hPa 0,0 l/m 22,0 km/h (4 Bft) 0 min
06.07.2020 13:14 22,3 C 22,0 C 21,1 C 58 % 74 % 1015 hPa 0,0 l/m 22,0 km/h (4 Bft) 0 min
06.07.2020 13:17 22,3 C 22,1 C 21,2 C 56 % 74 % 1015 hPa 0,0 l/m 22,0 km/h (4 Bft) 0 min
06.07.2020 13:20 22,3 C 22,0 C 21,1 C 57 % 74 % 1015 hPa 0,0 l/m 22,0 km/h (4 Bft) 0 min
06.07.2020 13:23 22,3 C 22,0 C 21,1 C 59 % 74 % 1015 hPa 0,0 l/m 22,0 km/h (4 Bft) 0 min
06.07.2020 13:26 22,3 C 22,1 C 21,3 C 58 % 74 % 1015 hPa 0,0 l/m 22,0 km/h (4 Bft) 0 min
06.07.2020 13:29 22,3 C 22,3 C 21,5 C 59 % 74 % 1015 hPa 0,0 l/m 22,0 km/h (4 Bft) 0 min
06.07.2020 13:32 22,2 C 22,4 C 21,1 C 57 % 74 % 1015 hPa 0,0 l/m 22,0 km/h (4 Bft) 0 min
06.07.2020 13:35 22,3 C 22,1 C 21,1 C 57 % 74 % 1015 hPa 0,0 l/m 22,0 km/h (4 Bft) 0 min
06.07.2020 13:38 22,3 C 22,0 C 21,0 C 58 % 74 % 1015 hPa 0,0 l/m 22,0 km/h (4 Bft) 0 min
06.07.2020 13:41 22,2 C 21,8 C 20,9 C 59 % 74 % 1015 hPa 0,0 l/m 22,0 km/h (4 Bft) 0 min
06.07.2020 13:44 22,3 C 21,8 C 20,8 C 59 % 74 % 1015 hPa 0,0 l/m 22,0 km/h (4 Bft) 0 min
06.07.2020 13:47 22,3 C 21,5 C 20,8 C 60 % 74 % 1015 hPa 0,0 l/m 22,0 km/h (4 Bft) 0 min
06.07.2020 13:50 22,3 C 21,5 C 20,7 C 60 % 74 % 1015 hPa 0,0 l/m 22,0 km/h (4 Bft) 0 min
06.07.2020 13:53 22,2 C 21,2 C 20,6 C 62 % 74 % 1015 hPa 0,0 l/m 14,7 km/h (3 Bft) 0 min
06.07.2020 13:56 22,2 C 21,1 C 20,6 C 62 % 74 % 1015 hPa 0,0 l/m 14,7 km/h (3 Bft) 0 min
06.07.2020 13:59 22,3 C 21,1 C 20,8 C 62 % 74 % 1015 hPa 0,0 l/m 14,7 km/h (3 Bft) 0 min
06.07.2020 14:02 22,3 C 21,3 C 20,7 C 62 % 74 % 1015 hPa 0,0 l/m 14,7 km/h (3 Bft) 0 min
06.07.2020 14:05 22,2 C 21,2 C 20,5 C 59 % 74 % 1016 hPa 0,0 l/m 15,3 km/h (3 Bft) 0 min
06.07.2020 14:08 22,3 C 20,9 C 20,4 C 61 % 74 % 1016 hPa 0,0 l/m 15,3 km/h (3 Bft) 0 min
06.07.2020 14:11 22,2 C 20,9 C 20,5 C 61 % 74 % 1016 hPa 0,0 l/m 15,3 km/h (3 Bft) 0 min
06.07.2020 14:14 22,3 C 20,8 C 20,5 C 61 % 74 % 1016 hPa 0,0 l/m 15,3 km/h (3 Bft) 0 min
06.07.2020 14:17 22,3 C 20,9 C 20,5 C 61 % 74 % 1016 hPa 0,0 l/m 15,3 km/h (3 Bft) 0 min
06.07.2020 14:20 22,3 C 20,8 C 20,5 C 61 % 74 % 1015 hPa 0,0 l/m 15,3 km/h (3 Bft) 0 min
06.07.2020 14:23 22,3 C 20,7 C 20,4 C 61 % 74 % 1015 hPa 0,0 l/m 15,3 km/h (3 Bft) 0 min
06.07.2020 14:26 22,3 C 20,8 C 20,2 C 62 % 74 % 1015 hPa 0,0 l/m 15,3 km/h (3 Bft) 0 min
06.07.2020 14:29 22,3 C 20,8 C 20,4 C 62 % 74 % 1015 hPa 0,0 l/m 15,3 km/h (3 Bft) 0 min
06.07.2020 14:32 22,3 C 20,7 C 20,4 C 62 % 74 % 1015 hPa 0,0 l/m 15,3 km/h (3 Bft) 0 min
06.07.2020 14:35 22,3 C 20,7 C 20,4 C 63 % 74 % 1015 hPa 0,0 l/m 15,3 km/h (3 Bft) 0 min
06.07.2020 14:38 22,3 C 20,7 C 20,4 C 63 % 74 % 1015 hPa 0,0 l/m 15,3 km/h (3 Bft) 0 min
06.07.2020 14:41 22,4 C 20,7 C 20,5 C 63 % 74 % 1015 hPa 0,0 l/m 15,3 km/h (3 Bft) 0 min
06.07.2020 14:44 22,3 C 20,8 C 20,3 C 63 % 74 % 1015 hPa 0,0 l/m 15,3 km/h (3 Bft) 0 min
06.07.2020 14:47 22,3 C 20,8 C 20,4 C 60 % 74 % 1016 hPa 0,0 l/m 15,3 km/h (3 Bft) 0 min
06.07.2020 14:50 22,3 C 20,9 C 20,5 C 60 % 74 % 1016 hPa 0,0 l/m 8,5 km/h (2 Bft) 0 min
06.07.2020 14:53 22,3 C 20,9 C 20,5 C 60 % 74 % 1016 hPa 0,0 l/m 8,5 km/h (2 Bft) 0 min
06.07.2020 14:56 22,4 C 20,9 C 20,3 C 59 % 74 % 1016 hPa 0,0 l/m 8,5 km/h (2 Bft) 0 min
06.07.2020 14:59 22,3 C 20,9 C 20,3 C 58 % 74 % 1016 hPa 0,0 l/m 10,3 km/h (2 Bft) 0 min
06.07.2020 15:02 22,3 C 20,8 C 20,3 C 58 % 74 % 1016 hPa 0,0 l/m 10,3 km/h (2 Bft) 0 min
06.07.2020 15:05 22,3 C 20,7 C 20,2 C 59 % 74 % 1016 hPa 0,0 l/m 10,3 km/h (2 Bft) 0 min
06.07.2020 15:08 22,3 C 20,7 C 20,1 C 59 % 74 % 1016 hPa 0,0 l/m 10,3 km/h (2 Bft) 0 min
06.07.2020 15:11 22,3 C 20,7 C 20,1 C 58 % 74 % 1016 hPa 0,0 l/m 10,3 km/h (2 Bft) 0 min
06.07.2020 15:14 22,3 C 20,7 C 20,3 C 59 % 74 % 1015 hPa 0,0 l/m 10,3 km/h (2 Bft) 0 min
06.07.2020 15:17 22,3 C 20,7 C 20,2 C 58 % 74 % 1015 hPa 0,0 l/m 10,3 km/h (2 Bft) 0 min
06.07.2020 15:20 22,3 C 20,6 C 20,1 C 54 % 74 % 1015 hPa 0,0 l/m 10,3 km/h (2 Bft) 0 min
06.07.2020 15:23 22,3 C 20,6 C 20,2 C 53 % 74 % 1015 hPa 0,0 l/m 10,3 km/h (2 Bft) 0 min
06.07.2020 15:26 22,3 C 20,4 C 19,8 C 51 % 74 % 1015 hPa 0,0 l/m 14,4 km/h (3 Bft) 0 min
06.07.2020 15:29 22,2 C 20,2 C 19,8 C 48 % 74 % 1015 hPa 0,0 l/m 16,5 km/h (3 Bft) 0 min
06.07.2020 15:32 22,3 C 20,1 C 19,6 C 52 % 74 % 1015 hPa 0,0 l/m 6,3 km/h (2 Bft) 0 min
06.07.2020 15:35 22,4 C 20,1 C 19,8 C 53 % 74 % 1015 hPa 0,0 l/m 1,2 km/h (1 Bft) 0 min
06.07.2020 15:38 22,3 C 20,0 C 19,8 C 53 % 74 % 1015 hPa 0,0 l/m 4,8 km/h (1 Bft) 0 min
06.07.2020 15:41 22,3 C 20,0 C 19,8 C 53 % 74 % 1015 hPa 0,0 l/m 6,3 km/h (2 Bft) 0 min
06.07.2020 15:44 22,2 C 20,0 C 19,7 C 50 % 74 % 1015 hPa 0,0 l/m 12,0 km/h (2 Bft) 0 min
06.07.2020 15:47 22,2 C 20,0 C 19,7 C 51 % 74 % 1015 hPa 0,0 l/m 15,6 km/h (3 Bft) 0 min
06.07.2020 15:50 22,2 C 20,2 C 19,7 C 51 % 74 % 1015 hPa 0,0 l/m 12,5 km/h (3 Bft) 0 min
06.07.2020 15:53 22,2 C 20,3 C 19,8 C 49 % 74 % 1015 hPa 0,0 l/m 17,4 km/h (3 Bft) 0 min
06.07.2020 15:56 22,2 C 20,3 C 19,7 C 48 % 74 % 1015 hPa 0,0 l/m 15,8 km/h (3 Bft) 0 min
06.07.2020 15:59 22,2 C 20,3 C 19,6 C 48 % 74 % 1015 hPa 0,0 l/m 17,1 km/h (3 Bft) 0 min
06.07.2020 16:02 22,2 C 20,2 C 19,6 C 48 % 74 % 1015 hPa 0,0 l/m 21,3 km/h (4 Bft) 0 min
06.07.2020 16:05 22,3 C 20,1 C 19,6 C 51 % 74 % 1015 hPa 0,0 l/m 9,5 km/h (2 Bft) 0 min
06.07.2020 16:08 22,3 C 19,9 C 19,3 C 49 % 74 % 1015 hPa 0,0 l/m 9,5 km/h (2 Bft) 0 min
06.07.2020 16:11 22,3 C 19,7 C 19,4 C 50 % 74 % 1015 hPa 0,0 l/m 9,5 km/h (2 Bft) 0 min
06.07.2020 16:14 22,3 C 19,7 C 19,4 C 51 % 74 % 1015 hPa 0,0 l/m 9,5 km/h (2 Bft) 0 min
06.07.2020 16:17 22,2 C 19,6 C 19,3 C 50 % 74 % 1015 hPa 0,0 l/m 9,5 km/h (2 Bft) 0 min
06.07.2020 16:20 22,2 C 19,6 C 19,3 C 50 % 74 % 1015 hPa 0,0 l/m 9,5 km/h (2 Bft) 0 min
06.07.2020 16:23 22,2 C 19,6 C 19,2 C 50 % 74 % 1015 hPa 0,0 l/m 9,5 km/h (2 Bft) 0 min
06.07.2020 16:26 22,2 C 19,6 C 19,2 C 51 % 74 % 1015 hPa 0,0 l/m 9,5 km/h (2 Bft) 0 min
06.07.2020 16:29 22,2 C 19,6 C 19,3 C 52 % 74 % 1015 hPa 0,0 l/m 9,5 km/h (2 Bft) 0 min
06.07.2020 16:32 22,2 C 19,6 C 19,1 C 52 % 74 % 1015 hPa 0,0 l/m 9,5 km/h (2 Bft) 0 min
06.07.2020 16:35 22,2 C 19,5 C 19,1 C 52 % 74 % 1015 hPa 0,0 l/m 9,5 km/h (2 Bft) 0 min
06.07.2020 16:38 22,2 C 19,5 C 19,3 C 52 % 74 % 1015 hPa 0,0 l/m 9,5 km/h (2 Bft) 0 min
06.07.2020 16:41 22,2 C 19,5 C 19,2 C 54 % 74 % 1015 hPa 0,0 l/m 9,5 km/h (2 Bft) 0 min
06.07.2020 16:44 22,2 C 19,5 C 19,3 C 55 % 74 % 1015 hPa 0,0 l/m 9,5 km/h (2 Bft) 0 min
06.07.2020 16:47 22,2 C 19,6 C 19,4 C 55 % 74 % 1015 hPa 0,0 l/m 9,5 km/h (2 Bft) 0 min
06.07.2020 16:50 22,2 C 19,8 C 19,7 C 56 % 74 % 1015 hPa 0,0 l/m 9,5 km/h (2 Bft) 0 min
06.07.2020 16:53 22,3 C 20,3 C 19,7 C 54 % 74 % 1015 hPa 0,0 l/m 9,5 km/h (2 Bft) 0 min
06.07.2020 16:56 22,3 C 20,6 C 19,9 C 54 % 74 % 1015 hPa 0,0 l/m 9,5 km/h (2 Bft) 0 min
06.07.2020 16:59 22,3 C 20,6 C 19,7 C 54 % 74 % 1015 hPa 0,0 l/m 9,5 km/h (2 Bft) 0 min
06.07.2020 17:02 22,3 C 20,4 C 19,7 C 55 % 74 % 1015 hPa 0,0 l/m 9,5 km/h (2 Bft) 0 min
06.07.2020 17:05 22,3 C 20,3 C 19,8 C 54 % 74 % 1015 hPa 0,0 l/m 9,5 km/h (2 Bft) 0 min
06.07.2020 17:08 22,3 C 20,4 C 19,9 C 55 % 74 % 1015 hPa 0,0 l/m 9,5 km/h (2 Bft) 0 min
06.07.2020 17:11 22,3 C 20,8 C 19,9 C 55 % 74 % 1016 hPa 0,0 l/m 9,5 km/h (2 Bft) 0 min
06.07.2020 17:14 22,4 C 20,8 C 19,7 C 53 % 74 % 1016 hPa 0,0 l/m 9,5 km/h (2 Bft) 0 min
06.07.2020 17:17 22,4 C 20,6 C 19,8 C 53 % 74 % 1016 hPa 0,0 l/m 9,5 km/h (2 Bft) 0 min
06.07.2020 17:20 22,4 C 21,0 C 20,0 C 54 % 74 % 1015 hPa 0,0 l/m 9,5 km/h (2 Bft) 0 min
06.07.2020 17:23 22,4 C 21,4 C 20,2 C 54 % 74 % 1015 hPa 0,0 l/m 9,5 km/h (2 Bft) 0 min
06.07.2020 17:26 22,4 C 21,6 C 20,1 C 52 % 74 % 1015 hPa 0,0 l/m 9,5 km/h (2 Bft) 0 min
06.07.2020 17:29 22,4 C 21,8 C 20,1 C 54 % 74 % 1015 hPa 0,0 l/m 7,5 km/h (2 Bft) 0 min
06.07.2020 17:32 22,4 C 21,4 C 19,7 C 52 % 74 % 1015 hPa 0,0 l/m 7,5 km/h (2 Bft) 0 min
06.07.2020 17:35 22,5 C 21,4 C 20,1 C 52 % 74 % 1015 hPa 0,0 l/m 7,5 km/h (2 Bft) 0 min
06.07.2020 17:38 22,5 C 21,8 C 20,3 C 54 % 74 % 1015 hPa 0,0 l/m 7,5 km/h (2 Bft) 0 min
06.07.2020 17:41 22,5 C 21,6 C 20,1 C 52 % 74 % 1015 hPa 0,0 l/m 7,5 km/h (2 Bft) 0 min
06.07.2020 17:44 22,4 C 21,3 C 19,9 C 54 % 74 % 1015 hPa 0,0 l/m 7,5 km/h (2 Bft) 0 min
06.07.2020 17:47 22,5 C 20,9 C 19,7 C 54 % 74 % 1015 hPa 0,0 l/m 7,5 km/h (2 Bft) 0 min
06.07.2020 17:50 22,4 C 20,6 C 19,7 C 54 % 74 % 1015 hPa 0,0 l/m 7,5 km/h (2 Bft) 0 min
06.07.2020 17:53 22,4 C 20,6 C 19,7 C 55 % 74 % 1015 hPa 0,0 l/m 7,5 km/h (2 Bft) 0 min
06.07.2020 17:56 22,4 C 20,8 C 19,7 C 55 % 74 % 1015 hPa 0,0 l/m 7,5 km/h (2 Bft) 0 min
06.07.2020 17:59 22,4 C 20,9 C 19,8 C 55 % 74 % 1015 hPa 0,0 l/m 7,5 km/h (2 Bft) 0 min
06.07.2020 18:02 22,4 C 21,0 C 20,0 C 55 % 74 % 1015 hPa 0,0 l/m 7,5 km/h (2 Bft) 0 min
06.07.2020 18:05 22,4 C 21,0 C 20,0 C 55 % 74 % 1015 hPa 0,0 l/m 7,5 km/h (2 Bft) 0 min
06.07.2020 18:08 22,4 C 21,1 C 20,0 C 56 % 74 % 1015 hPa 0,0 l/m 7,5 km/h (2 Bft) 0 min
06.07.2020 18:11 22,4 C 20,8 C 19,8 C 56 % 74 % 1015 hPa 0,0 l/m 7,5 km/h (2 Bft) 0 min
06.07.2020 18:14 22,4 C 20,9 C 20,0 C 57 % 74 % 1015 hPa 0,0 l/m 7,2 km/h (2 Bft) 0 min
06.07.2020 18:17 22,4 C 20,9 C 20,0 C 57 % 74 % 1015 hPa 0,0 l/m 7,2 km/h (2 Bft) 0 min
06.07.2020 18:20 22,5 C 21,0 C 20,0 C 58 % 74 % 1015 hPa 0,0 l/m 7,2 km/h (2 Bft) 0 min
06.07.2020 18:23 22,6 C 21,0 C 20,0 C 56 % 74 % 1015 hPa 0,0 l/m 7,2 km/h (2 Bft) 0 min
06.07.2020 18:26 22,6 C 21,0 C 19,9 C 58 % 74 % 1015 hPa 0,0 l/m 7,2 km/h (2 Bft) 0 min
06.07.2020 18:29 22,6 C 20,8 C 20,1 C 57 % 74 % 1015 hPa 0,0 l/m 7,2 km/h (2 Bft) 0 min
06.07.2020 18:32 22,6 C 20,8 C 19,9 C 57 % 74 % 1016 hPa 0,0 l/m 7,2 km/h (2 Bft) 0 min
06.07.2020 18:35 22,6 C 20,6 C 19,7 C 57 % 74 % 1016 hPa 0,0 l/m 9,6 km/h (2 Bft) 0 min
06.07.2020 18:38 22,6 C 20,5 C 19,8 C 57 % 74 % 1016 hPa 0,0 l/m 12,5 km/h (3 Bft) 0 min
06.07.2020 18:41 22,6 C 20,4 C 19,7 C 58 % 74 % 1015 hPa 0,0 l/m 5,0 km/h (1 Bft) 0 min
06.07.2020 18:44 22,6 C 20,4 C 19,7 C 57 % 74 % 1015 hPa 0,0 l/m 6,7 km/h (2 Bft) 0 min
06.07.2020 18:47 22,6 C 20,4 C 19,7 C 57 % 74 % 1015 hPa 0,0 l/m 5,7 km/h (1 Bft) 0 min
06.07.2020 18:50 22,5 C 20,4 C 19,7 C 57 % 74 % 1015 hPa 0,0 l/m 7,2 km/h (2 Bft) 0 min
06.07.2020 18:53 22,6 C 20,3 C 19,6 C 56 % 74 % 1015 hPa 0,0 l/m 7,6 km/h (2 Bft) 0 min
06.07.2020 18:56 22,5 C 20,2 C 19,6 C 56 % 74 % 1015 hPa 0,0 l/m 7,0 km/h (2 Bft) 0 min
06.07.2020 18:59 22,5 C 20,1 C 19,6 C 57 % 74 % 1015 hPa 0,0 l/m 4,8 km/h (1 Bft) 0 min
06.07.2020 19:02 22,4 C 20,0 C 19,6 C 57 % 74 % 1016 hPa 0,0 l/m 5,6 km/h (1 Bft) 0 min
06.07.2020 19:05 22,4 C 19,9 C 19,6 C 58 % 74 % 1016 hPa 0,0 l/m 7,2 km/h (2 Bft) 0 min
06.07.2020 19:08 22,4 C 19,8 C 19,4 C 58 % 74 % 1016 hPa 0,0 l/m 5,6 km/h (1 Bft) 0 min
06.07.2020 19:11 22,4 C 19,7 C 19,4 C 59 % 74 % 1016 hPa 0,0 l/m 6,4 km/h (2 Bft) 0 min
06.07.2020 19:14 22,4 C 19,7 C 19,4 C 59 % 74 % 1016 hPa 0,0 l/m 4,7 km/h (1 Bft) 0 min
06.07.2020 19:17 22,4 C 19,6 C 19,4 C 59 % 74 % 1016 hPa 0,0 l/m 0,0 km/h (0 Bft) 0 min
06.07.2020 19:20 22,4 C 19,6 C 19,4 C 59 % 74 % 1016 hPa 0,0 l/m 7,0 km/h (2 Bft) 0 min
06.07.2020 19:23 22,4 C 19,7 C 19,5 C 60 % 74 % 1016 hPa 0,0 l/m 8,3 km/h (2 Bft) 0 min
06.07.2020 19:26 22,4 C 19,7 C 19,6 C 60 % 74 % 1016 hPa 0,0 l/m 13,0 km/h (3 Bft) 0 min
06.07.2020 19:29 22,4 C 19,9 C 19,5 C 59 % 74 % 1016 hPa 0,0 l/m 10,8 km/h (2 Bft) 0 min
06.07.2020 19:32 22,4 C 20,0 C 19,8 C 57 % 74 % 1016 hPa 0,0 l/m 10,8 km/h (2 Bft) 0 min
06.07.2020 19:35 22,4 C 20,1 C 19,8 C 55 % 74 % 1016 hPa 0,0 l/m 10,8 km/h (2 Bft) 0 min
06.07.2020 19:38 22,4 C 20,1 C 19,9 C 51 % 74 % 1016 hPa 0,0 l/m 10,8 km/h (2 Bft) 0 min
06.07.2020 19:41 22,5 C 20,2 C 19,8 C 51 % 74 % 1016 hPa 0,0 l/m 10,8 km/h (2 Bft) 0 min
06.07.2020 19:44 22,4 C 20,2 C 19,7 C 49 % 74 % 1016 hPa 0,0 l/m 10,8 km/h (2 Bft) 0 min
06.07.2020 19:47 22,4 C 20,2 C 19,8 C 48 % 74 % 1017 hPa 0,0 l/m 10,8 km/h (2 Bft) 0 min
06.07.2020 19:50 22,4 C 20,3 C 19,9 C 48 % 74 % 1017 hPa 0,0 l/m 10,8 km/h (2 Bft) 0 min
06.07.2020 19:53 22,4 C 20,2 C 19,8 C 47 % 74 % 1017 hPa 0,0 l/m 10,8 km/h (2 Bft) 0 min
06.07.2020 19:56 22,4 C 20,2 C 19,8 C 46 % 74 % 1017 hPa 0,0 l/m 10,8 km/h (2 Bft) 0 min
06.07.2020 19:59 22,4 C 20,2 C 19,7 C 47 % 74 % 1017 hPa 0,0 l/m 10,8 km/h (2 Bft) 0 min
06.07.2020 20:02 22,4 C 20,2 C 19,7 C 46 % 74 % 1017 hPa 0,0 l/m 10,8 km/h (2 Bft) 0 min
06.07.2020 20:05 22,4 C 20,1 C 19,6 C 47 % 74 % 1017 hPa 0,0 l/m 10,8 km/h (2 Bft) 0 min
06.07.2020 20:08 22,4 C 20,0 C 19,5 C 48 % 74 % 1017 hPa 0,0 l/m 10,8 km/h (2 Bft) 0 min
06.07.2020 20:11 22,4 C 19,9 C 19,5 C 48 % 74 % 1017 hPa 0,0 l/m 10,8 km/h (2 Bft) 0 min
06.07.2020 20:14 22,4 C 19,7 C 19,4 C 48 % 74 % 1017 hPa 0,0 l/m 10,8 km/h (2 Bft) 0 min
06.07.2020 20:17 22,5 C 19,5 C 19,3 C 48 % 74 % 1017 hPa 0,0 l/m 10,8 km/h (2 Bft) 0 min
06.07.2020 20:20 22,4 C 19,5 C 19,2 C 48 % 74 % 1017 hPa 0,0 l/m 10,8 km/h (2 Bft) 0 min
06.07.2020 20:23 22,4 C 19,3 C 19,2 C 48 % 74 % 1017 hPa 0,0 l/m 10,8 km/h (2 Bft) 0 min
06.07.2020 20:26 22,4 C 19,2 C 19,1 C 48 % 74 % 1017 hPa 0,0 l/m 10,8 km/h (2 Bft) 0 min
06.07.2020 20:29 22,4 C 19,1 C 19,1 C 48 % 74 % 1017 hPa 0,0 l/m 10,8 km/h (2 Bft) 0 min
06.07.2020 20:32 22,4 C 19,0 C 19,0 C 48 % 74 % 1017 hPa 0,0 l/m 10,8 km/h (2 Bft) 0 min
06.07.2020 20:35 22,4 C 18,9 C 18,9 C 48 % 74 % 1017 hPa 0,0 l/m 10,8 km/h (2 Bft) 0 min
06.07.2020 20:38 22,4 C 18,8 C 18,9 C 48 % 74 % 1018 hPa 0,0 l/m 10,8 km/h (2 Bft) 0 min
06.07.2020 20:41 22,4 C 18,8 C 18,9 C 48 % 74 % 1018 hPa 0,0 l/m 10,8 km/h (2 Bft) 0 min
06.07.2020 20:44 22,4 C 18,7 C 18,9 C 48 % 74 % 1018 hPa 0,0 l/m 10,8 km/h (2 Bft) 0 min
06.07.2020 20:47 22,5 C 18,6 C 18,7 C 49 % 74 % 1018 hPa 0,0 l/m 10,8 km/h (2 Bft) 0 min
06.07.2020 20:50 22,4 C 18,6 C 18,6 C 49 % 74 % 1018 hPa 0,0 l/m 10,8 km/h (2 Bft) 0 min
06.07.2020 20:53 22,5 C 18,6 C 18,6 C 49 % 74 % 1018 hPa 0,0 l/m 10,8 km/h (2 Bft) 0 min
06.07.2020 20:56 22,4 C 18,4 C 18,5 C 50 % 74 % 1018 hPa 0,0 l/m 10,8 km/h (2 Bft) 0 min
06.07.2020 20:59 22,5 C 18,3 C 18,4 C 50 % 74 % 1018 hPa 0,0 l/m 10,8 km/h (2 Bft) 0 min
06.07.2020 21:02 22,5 C 18,2 C 18,4 C 50 % 74 % 1018 hPa 0,0 l/m 10,8 km/h (2 Bft) 0 min
06.07.2020 21:05 22,4 C 18,2 C 18,5 C 50 % 74 % 1018 hPa 0,0 l/m 10,8 km/h (2 Bft) 0 min
06.07.2020 21:08 22,4 C 18,2 C 18,5 C 51 % 74 % 1018 hPa 0,0 l/m 10,8 km/h (2 Bft) 0 min
06.07.2020 21:11 22,4 C 18,0 C 18,2 C 51 % 74 % 1018 hPa 0,0 l/m 10,8 km/h (2 Bft) 0 min
06.07.2020 21:14 22,4 C 18,0 C 18,3 C 51 % 74 % 1018 hPa 0,0 l/m 10,8 km/h (2 Bft) 0 min
06.07.2020 21:17 22,4 C 18,0 C 18,3 C 52 % 74 % 1018 hPa 0,0 l/m 10,8 km/h (2 Bft) 0 min
06.07.2020 21:20 22,4 C 18,0 C 18,4 C 52 % 74 % 1019 hPa 0,0 l/m 8,7 km/h (2 Bft) 0 min
06.07.2020 21:23 22,4 C 17,8 C 18,2 C 52 % 74 % 1019 hPa 0,0 l/m 8,7 km/h (2 Bft) 0 min
06.07.2020 21:26 22,4 C 17,8 C 18,3 C 52 % 74 % 1019 hPa 0,0 l/m 8,7 km/h (2 Bft) 0 min
06.07.2020 21:29 22,4 C 17,7 C 18,1 C 52 % 74 % 1019 hPa 0,0 l/m 8,7 km/h (2 Bft) 0 min
06.07.2020 21:32 22,3 C 17,6 C 18,1 C 52 % 74 % 1019 hPa 0,0 l/m 8,7 km/h (2 Bft) 0 min
06.07.2020 21:35 22,3 C 17,5 C 18,1 C 53 % 74 % 1019 hPa 0,0 l/m 8,7 km/h (2 Bft) 0 min
06.07.2020 21:38 22,3 C 17,4 C 18,1 C 53 % 74 % 1019 hPa 0,0 l/m 8,7 km/h (2 Bft) 0 min
06.07.2020 21:41 22,3 C 17,4 C 18,0 C 53 % 74 % 1019 hPa 0,0 l/m 8,7 km/h (2 Bft) 0 min
06.07.2020 21:44 22,3 C 17,3 C 18,0 C 54 % 74 % 1019 hPa 0,0 l/m 8,7 km/h (2 Bft) 0 min
06.07.2020 21:47 22,2 C 17,2 C 17,9 C 54 % 74 % 1019 hPa 0,0 l/m 8,7 km/h (2 Bft) 0 min
06.07.2020 21:50 22,2 C 17,1 C 17,8 C 54 % 74 % 1019 hPa 0,0 l/m 8,1 km/h (2 Bft) 0 min
06.07.2020 21:53 22,2 C 17,0 C 17,8 C 54 % 74 % 1019 hPa 0,0 l/m 8,1 km/h (2 Bft) 0 min
06.07.2020 21:56 22,1 C 17,0 C 17,7 C 53 % 74 % 1019 hPa 0,0 l/m 8,1 km/h (2 Bft) 0 min
06.07.2020 21:59 22,1 C 16,8 C 17,7 C 54 % 74 % 1019 hPa 0,0 l/m 8,1 km/h (2 Bft) 0 min
06.07.2020 22:02 22,0 C 16,8 C 17,6 C 54 % 74 % 1019 hPa 0,0 l/m 8,1 km/h (2 Bft) 0 min
06.07.2020 22:05 22,1 C 16,7 C 17,6 C 54 % 74 % 1019 hPa 0,0 l/m 8,1 km/h (2 Bft) 0 min
06.07.2020 22:08 22,1 C 16,6 C 17,4 C 54 % 74 % 1019 hPa 0,0 l/m 8,1 km/h (2 Bft) 0 min
06.07.2020 22:11 22,0 C 16,5 C 17,5 C 55 % 74 % 1019 hPa 0,0 l/m 8,1 km/h (2 Bft) 0 min
06.07.2020 22:14 22,0 C 16,4 C 17,6 C 55 % 74 % 1019 hPa 0,0 l/m 8,1 km/h (2 Bft) 0 min
06.07.2020 22:17 22,1 C 16,4 C 17,6 C 56 % 74 % 1019 hPa 0,0 l/m 8,1 km/h (2 Bft) 0 min
06.07.2020 22:20 22,1 C 16,4 C 17,3 C 56 % 74 % 1019 hPa 0,0 l/m 6,5 km/h (2 Bft) 0 min
06.07.2020 22:23 22,1 C 16,2 C 17,3 C 56 % 74 % 1019 hPa 0,0 l/m 6,5 km/h (2 Bft) 0 min
06.07.2020 22:26 22,1 C 16,2 C 17,3 C 56 % 74 % 1019 hPa 0,0 l/m 6,5 km/h (2 Bft) 0 min
06.07.2020 22:29 22,1 C 16,1 C 17,4 C 56 % 74 % 1019 hPa 0,0 l/m 6,5 km/h (2 Bft) 0 min
06.07.2020 22:32 22,2 C 16,0 C 17,2 C 56 % 74 % 1019 hPa 0,0 l/m 6,5 km/h (2 Bft) 0 min
06.07.2020 22:35 22,1 C 16,0 C 17,2 C 56 % 74 % 1019 hPa 0,0 l/m 6,5 km/h (2 Bft) 0 min
06.07.2020 22:38 22,1 C 15,9 C 17,2 C 56 % 74 % 1019 hPa 0,0 l/m 6,5 km/h (2 Bft) 0 min
06.07.2020 22:41 22,1 C 15,8 C 17,1 C 57 % 74 % 1019 hPa 0,0 l/m 6,5 km/h (2 Bft) 0 min
06.07.2020 22:44 22,1 C 15,7 C 17,2 C 57 % 74 % 1019 hPa 0,0 l/m 6,5 km/h (2 Bft) 0 min
06.07.2020 22:47 22,0 C 15,6 C 17,2 C 57 % 74 % 1019 hPa 0,0 l/m 6,5 km/h (2 Bft) 0 min
06.07.2020 22:50 22,0 C 15,6 C 16,9 C 57 % 74 % 1019 hPa 0,0 l/m 6,5 km/h (2 Bft) 0 min
06.07.2020 22:53 22,0 C 15,6 C 17,0 C 58 % 74 % 1019 hPa 0,0 l/m 6,5 km/h (2 Bft) 0 min
06.07.2020 22:56 22,0 C 15,5 C 16,9 C 57 % 74 % 1020 hPa 0,0 l/m 6,5 km/h (2 Bft) 0 min
06.07.2020 22:59 22,0 C 15,4 C 16,8 C 57 % 74 % 1020 hPa 0,0 l/m 6,5 km/h (2 Bft) 0 min
06.07.2020 23:02 22,0 C 15,3 C 16,7 C 57 % 74 % 1020 hPa 0,0 l/m 6,5 km/h (2 Bft) 0 min
06.07.2020 23:05 22,0 C 15,3 C 16,7 C 57 % 74 % 1020 hPa 0,0 l/m 6,5 km/h (2 Bft) 0 min
06.07.2020 23:08 22,0 C 15,3 C 16,7 C 57 % 74 % 1020 hPa 0,0 l/m 6,5 km/h (2 Bft) 0 min
06.07.2020 23:11 22,0 C 15,3 C 16,9 C 57 % 74 % 1020 hPa 0,0 l/m 6,5 km/h (2 Bft) 0 min
06.07.2020 23:14 22,0 C 15,2 C 16,8 C 58 % 74 % 1020 hPa 0,0 l/m 6,5 km/h (2 Bft) 0 min
06.07.2020 23:17 22,0 C 15,2 C 16,8 C 58 % 74 % 1020 hPa 0,0 l/m 6,5 km/h (2 Bft) 0 min
06.07.2020 23:20 22,0 C 15,2 C 16,9 C 58 % 74 % 1020 hPa 0,0 l/m 6,5 km/h (2 Bft) 0 min
06.07.2020 23:23 22,0 C 15,1 C 16,6 C 58 % 74 % 1020 hPa 0,0 l/m 6,5 km/h (2 Bft) 0 min
06.07.2020 23:26 22,0 C 15,0 C 16,6 C 59 % 74 % 1020 hPa 0,0 l/m 0,0 km/h (0 Bft) 0 min
06.07.2020 23:29 22,0 C 15,0 C 16,2 C 58 % 74 % 1020 hPa 0,0 l/m 0,0 km/h (0 Bft) 0 min
06.07.2020 23:32 22,0 C 15,0 C 16,4 C 59 % 74 % 1020 hPa 0,0 l/m 0,3 km/h (0 Bft) 0 min
06.07.2020 23:35 22,0 C 15,0 C 16,3 C 59 % 74 % 1020 hPa 0,0 l/m 0,0 km/h (0 Bft) 0 min
06.07.2020 23:38 22,0 C 14,8 C 16,4 C 59 % 74 % 1020 hPa 0,0 l/m 0,0 km/h (0 Bft) 0 min
06.07.2020 23:41 22,0 C 14,8 C 16,5 C 59 % 74 % 1020 hPa 0,0 l/m 0,1 km/h (0 Bft) 0 min
06.07.2020 23:44 22,0 C 14,8 C 16,3 C 59 % 74 % 1021 hPa 0,0 l/m 0,9 km/h (0 Bft) 0 min
06.07.2020 23:47 22,0 C 14,7 C 16,2 C 59 % 74 % 1021 hPa 0,0 l/m 3,7 km/h (1 Bft) 0 min
06.07.2020 23:50 22,0 C 14,6 C 16,2 C 59 % 74 % 1021 hPa 0,0 l/m 2,2 km/h (1 Bft) 0 min
06.07.2020 23:53 21,9 C 14,5 C 16,3 C 59 % 74 % 1021 hPa 0,0 l/m 2,9 km/h (1 Bft) 0 min
06.07.2020 23:56 21,9 C 14,4 C 16,3 C 59 % 74 % 1021 hPa 0,0 l/m 4,7 km/h (1 Bft) 0 min
06.07.2020 23:59 21,9 C 14,4 C 16,3 C 59 % 74 % 1021 hPa 0,0 l/m 3,9 km/h (1 Bft) 0 min
_ Min-Zeit 05:35 23:56 23:29 19:56 - 07:35 - 00:17 -
Minimum _ 20,3 C 14,4 C 16,2 C 46 % - 1014 hPa - 0,0 km/h (0 Bft) -
_ Max-Zeit 18:23 10:47 10:50 00:20 00:17 23:44 00:17 11:05 00:17
Maximum _ 22,6 C 24,7 C 22,9 C 75 % 74 % 1021 hPa 0,0 l/m 25,8 km/h
N (4 Bft)
0 min
Durchschnitt _ 21,8 C 19,5 C 19,3 C 63 % #15:33 h 1016 hPa #0,0 l/m 7,6 km/h (2 Bft) #0 min.